Location: Limoges
(45.8354°N, 1.2645°E)
Time: 08:51:30
(UTC+01:00)

Vanguard 1 Rocket - All Passes

Search period start: 25 February 2024 00:00
Search period end: 06 March 2024 00:00
Orbit: 654 x 4218 km, 34.3° (Epoch: 24 February)

Date Brightness Start Highest point End Pass type
(mag) Time Alt. Az. Time Alt. Az. Time Alt. Az.
25 Feb - 05:16:27 10° SSE 05:26:30 15° SE 05:34:47 10° ESE visible
25 Feb - 07:37:24 10° SSW 07:54:35 33° SSE 08:05:04 10° E daylight
25 Feb - 10:06:48 10° WSW 10:21:40 44° S 10:29:40 10° ESE daylight
25 Feb - 12:37:39 10° W 12:46:51 32° SSW 12:52:23 10° SE daylight
26 Feb - 06:24:17 10° SSW 06:41:14 27° SSE 06:52:43 10° E visible
26 Feb - 08:51:43 10° SW 09:09:06 43° S 09:18:40 10° ESE daylight
26 Feb - 11:22:48 10° WSW 11:35:19 42° SSW 11:42:10 10° SE daylight
26 Feb - 13:53:59 10° WSW 13:59:16 18° SW 14:03:10 10° S daylight
27 Feb - 05:12:59 10° S 05:27:41 20° SE 05:38:58 10° ESE visible
27 Feb - 07:37:02 10° SW 07:56:00 39° SSE 08:07:13 10° E daylight
27 Feb - 10:07:31 10° WSW 10:23:14 47° S 10:31:33 10° ESE daylight
27 Feb - 12:39:00 10° W 12:48:18 30° SSW 12:53:58 10° SSE daylight
28 Feb - 04:05:40 10° SSE 04:14:08 13° SE 04:21:40 10° ESE visible
28 Feb - 06:23:14 10° SSW 06:42:29 33° SSE 06:55:07 10° E visible
28 Feb - 08:52:05 10° WSW 09:10:34 48° S 09:20:35 10° ESE daylight
28 Feb - 11:23:52 10° W 11:36:49 41° SSW 11:43:55 10° SE daylight
28 Feb - 13:56:07 10° WSW 14:00:31 15° SW 14:03:57 10° S daylight
29 Feb - 05:10:54 10° S 05:28:46 26° SE 05:41:59 10° E visible
29 Feb - 07:36:57 10° SW 07:57:21 44° SSE 08:09:12 10° E daylight
29 Feb - 10:08:20 10° WSW 10:24:43 48° S 10:33:22 10° ESE daylight
29 Feb - 12:40:25 10° W 12:49:37 27° SSW 12:55:22 10° SSE daylight
01 Mar - 04:01:00 10° S 04:15:03 18° SE 04:26:51 10° ESE visible
01 Mar - 06:22:38 10° SW 06:43:40 39° SSE 06:57:15 10° E visible
01 Mar - 08:52:35 10° WSW 09:12:00 51° S 09:22:26 10° ESE daylight
01 Mar - 11:24:57 10° W 11:38:13 39° SSW 11:45:32 10° SE daylight
01 Mar - 13:58:54 10° WSW 14:01:37 12° SW 14:03:58 10° SSW daylight
02 Mar - 05:09:36 10° SSW 05:29:45 32° SSE 05:44:27 10° E visible
02 Mar - 07:37:07 10° SW 07:58:39 49° S 08:11:04 10° E daylight
02 Mar - 10:09:11 10° WSW 10:26:08 49° SSW 10:35:07 10° ESE daylight
02 Mar - 12:41:55 10° W 12:50:49 24° SW 12:56:35 10° SSE daylight
03 Mar - 03:58:26 10° S 04:15:50 24° SE 04:30:14 10° E visible
03 Mar - 06:22:23 10° SW 06:44:48 44° SSE 06:59:12 10° E visible
03 Mar - 08:53:12 10° WSW 09:13:21 53° S 09:24:13 10° ESE daylight
03 Mar - 11:26:04 10° W 11:39:30 37° SSW 11:47:03 10° SE daylight
04 Mar - 02:50:40 10° SSE 03:02:13 15° SE 03:12:54 10° ESE visible
04 Mar - 05:08:50 10° SSW 05:30:40 37° SSE 05:46:35 10° E visible
04 Mar - 07:37:28 10° WSW 07:59:54 53° S 08:12:52 10° E daylight
04 Mar - 10:10:04 10° W 10:27:28 47° SSW 10:36:46 10° SE daylight
04 Mar - 12:43:36 10° W 12:51:53 20° SW 12:57:31 10° S daylight
05 Mar - 03:56:52 10° S 04:16:33 29° SE 04:32:50 10° E visible
05 Mar - 06:22:25 10° SW 06:45:53 49° SSE 07:01:01 10° E visible
05 Mar - 08:53:55 10° WSW 09:14:40 54° S 09:25:56 10° ESE daylight
05 Mar - 11:27:15 10° W 11:40:39 33° SW 11:48:25 10° SSE daylight
